Location: Bothwell
(42.3833°S, 147.0000°E)
Time: 19:36:57
(UTC+11:00)

First-Move - Pass Details

Date: 27 September 2022
Orbit: 570 x 653 km, 97.7° (Epoch: 25 November)

Event Time Altitude Azimuth Distance (km) Brightness Sun altitude
Exits shadow 02:45:43 29° 152° (SSE) 1,214 ? -32.9°
Drops below altitude 10° 02:48:25 10° 177° (S) 2,104 ? -32.6°
Enters shadow 03:59:31 -36° 2° (N) 8,342 ? -21.3°
